This is the latest recevied weather packets stored in our database for station/object W4SPD. If no packets are shown the sender has not sent any weather packets the latest 10 day(s).
| Time | Temp. | Humidity | Pressure | Rain* | Wind** | Luminosity | Snow |
|---|---|---|---|---|---|---|---|
| 1778002092 | 24.44° C | 43% | - | 0 mm | - | - | - |
| 1778001790 | 24.44° C | 43% | - | 0 mm | - | - | - |
| 1778001484 | 24.44° C | 42% | - | 0 mm | - | - | - |
| 1778001181 | 24.44° C | 41% | - | 0 mm | - | - | - |
| 1778000878 | 24.44° C | 42% | - | 0 mm | - | - | - |
| 1778000575 | 23.89° C | 44% | - | 0 mm | - | - | - |
| 1777999966 | 24.44° C | 45% | - | 0 mm | - | - | - |
| 1777999662 | 23.89° C | 43% | - | 0 mm | - | - | - |
| 1777999360 | 24.44° C | 45% | - | 0 mm | - | - | - |
| 1777999058 | 24.44° C | 45% | - | 0 mm | - | - | - |
| 1777998756 | 24.44° C | 46% | - | 0 mm | - | - | - |
| 1777998453 | 23.89° C | 44% | - | 0 mm | - | - | - |
| 1777998150 | 23.89° C | 46% | - | 0 mm | - | - | - |
| 1777997847 | 23.33° C | 44% | - | 0 mm | - | - | - |
| 1777997545 | 23.89° C | 41% | - | 0 mm | - | - | - |
| 1777997241 | 23.89° C | 45% | - | 0 mm | - | - | - |
| 1777996939 | 23.33° C | 47% | - | 0 mm | - | - | - |
| 1777996635 | 23.33° C | 48% | - | 0 mm | - | - | - |
| 1777996332 | 22.78° C | 54% | - | 0 mm | - | - | - |
| 1777996028 | 22.22° C | 55% | - | 0 mm | - | - | - |
| 1777995724 | 22.22° C | 54% | - | 0 mm | - | - | - |
| 1777995421 | 22.22° C | 53% | - | 0 mm | - | - | - |
| 1777995118 | 21.67° C | 54% | - | 0 mm | - | - | - |
| 1777994815 | 21.67° C | 55% | - | 0 mm | - | - | - |
| 1777994511 | 21.11° C | 58% | - | 0 mm | - | - | - |
* Rain latest hour (hover to see other rain measurements)
** Current wind speed in m/s (hover to see current wind gust speed)